Location: Chacón
(10.5789°N, 66.9317°W)
Time: 13:26:10
(UTC+00:00)

Cosmos 2219 - Pass Details

Date: 23 May 2024
Orbit: 834 x 858 km, 71.1° (Epoch: 25 June)

Event Time Altitude Azimuth Distance (km) Brightness Sun altitude
Exits shadow 08:51:52 - 189° (S) 2,608 5.4 -17.3°
Reaches altitude 10° 08:52:13 10° 189° (S) 2,475 5.3 -17.2°
Maximum altitude 08:57:53 72° 105° (ESE) 891 3.4 -15.9°
Drops below altitude 10° 09:03:30 10° 22° (NNE) 2,459 6.3 -14.7°
Sets 09:05:57 0° 20° (NNE) 3,390 7.1 -14.1°
